{"data":{"norad_id":61182,"intl_designator":"2024-167A","name":"GSAT0232 (GALILEO 32)","alt_names":[],"object_type":"PAYLOAD","status":"ACTIVE","operator":null,"country":"ESA","launch_date":"2024-09-17","launch_site_code":"AFETR","launch_vehicle":null,"mission":null,"orbit_class":"UNKNOWN","rcs_meters":null,"size_class":null,"mass_kg":null,"dimensions":null,"purposes":["earth_obs","nav"],"wikipedia_slug":null,"has_3d_model":false,"image_url":null,"decayed_at":null,"tle_current":{"epoch":"2026-05-24T06:49:21.780768Z","epoch_age_seconds":127140,"freshness":"FRESH","line1":"1 61182U 24167A   26144.28427987 -.00000012  00000+0  00000+0 0  9994","line2":"2 61182  55.1908 221.9692 0005629 222.4383 196.4466  1.70474466 10472","mean_motion":1.70474466,"eccentricity":0.0005629,"inclination_deg":55.1908,"raan_deg":221.9692,"arg_perigee_deg":222.4383,"mean_anomaly_deg":196.4466,"bstar":0,"rev_number":1047,"period_min":844.70128212632,"perigee_km":23205.467125163,"apogee_km":23238.791104755,"semimajor_km":29600.266114959,"source":"CELESTRAK","updated_at":"2026-05-25T13:38:24.062207Z"}}}